Погода в Мазаново

Россия / Амурская область     51°37′51″N   128°49′29″E
темп.,
°C
ветер,
м/с
пор.,
м/с
влажн.,
%
обл.,
%
осадки,
мм/ч
давл.,
гПа
погр.,
м
19 сентября, вс
вс1900:00+5зсз22724 0.0 101830
03:00+3з23761 0.0 101838
06:00+2зюз12813 0.0 101816
09:00+9сз24590 0.0 1018373
12:00+13сз48410 0.0 10171471
15:00+14сз59435 0.0 10161842
18:00+10зсз22650 0.0 101727
21:00+6з11710 0.0 101810
20 сентября, пн
пн2000:00+5ююз22760 0.0 101828
03:00+4ююз22790 0.0 101736
06:00+3ююз24855 0.0 101757
09:00+10юз36730 0.0 1016313
12:00+16юз46530 0.0 1014898
15:00+18юз45480 0.0 10131459
18:00+13ю23805 0.0 101345
21:00+9ю22885 0.0 101429
21 сентября, вт
вт2100:00+7ю228854 0.0 101414
03:00+6ююв1185100 0.0 101310
06:00+5вюв118829 0.0 101410
09:00+12в12668 0.0 1013243
12:00+16вюв2354100 0.0 1012815
15:00+17в2354100 0.0 10101124
18:00+13св2278100 0.0 101032
21:00+10св2383100 0.0 101141
22 сентября, ср
ср2200:00+9ссв2788100 0.0 1011124
03:00+8ссв3988100 0.0 1012191
06:00+8ссв3885100 0.0 1012186
09:00+11св3474100 0.0 1013262
12:00+16вюв2356100 0.0 1013713
15:00+17ююв2252100 0.0 10141018
18:00+13юз1175100 0.0 101510
21:00+10ссз118229 0.0 101811
23 сентября, чт
чт2300:00+8с11900 0.0 101912
03:00+7св11830 0.0 102011
06:00+5с11765 0.0 102210
09:00+11ссв00613 0.0 1022223
12:00+16ююз23585 0.0 1021945
15:00+17ююз235073 0.0 10211191
18:00+12юв127341 0.0 102212
21:00+9вюв118376 0.0 102310